Location: Bu�n Treun
(12.1333°N, 108.3167°E)
Time: 23:43:22
(UTC+00:00)

MOS 1 - Pass Details

Date: 13 July 2020
Orbit: 879 x 891 km, 99.2° (Epoch: 14 August)

Event Time Altitude Azimuth Distance (km) Brightness Sun altitude
Exits shadow 12:46:19 38° 138° (SE) 1,320 4.7 -20.8°
Maximum altitude 12:48:21 60° 76° (ENE) 999 4.3 -21.2°
Drops below altitude 10° 12:53:53 10° 357° (N) 2,532 7.1 -22.4°
Sets 12:56:18 0° 354° (N) 3,469 7.9 -22.9°
